BAF608 EGVN-EBBR

Flight info

Callsign BAF608
Flight time 0h 49m
Altitude 29000
Route CONKO L18 NUCHU L607 BIG UL9 KONAN UL607 KOK
Aircraft A400/H-SDE2E3FGHIJ4J5M1RWXY/LB1D1

Departure

Time 2026-05-08 19:46
Airport RAF Brize Norton (EGVN)

Arrival

Time 2026-05-08 20:35
Airport Brussels Airport (EBBR)
Time Latitude Longitude Altitude Speed Heading
2026-05-08 19:34 51.75538 -1.57598 277 ft 0 kts 117°
2026-05-08 19:41 51.75536 -1.57592 249 ft 4 kts 118°
2026-05-08 19:42 51.75521 -1.57505 276 ft 10 kts 70°
2026-05-08 19:42 51.75592 -1.57427 275 ft 13 kts 21°
2026-05-08 19:42 51.75678 -1.57390 278 ft 15 kts 18°
2026-05-08 19:42 51.75788 -1.57333 274 ft 18 kts 18°
2026-05-08 19:43 51.75898 -1.57266 274 ft 14 kts 39°
2026-05-08 19:43 51.75883 -1.57109 272 ft 17 kts 119°
2026-05-08 19:43 51.75796 -1.56938 271 ft 22 kts 144°
2026-05-08 19:43 51.75644 -1.56849 271 ft 24 kts 164°
2026-05-08 19:44 51.75488 -1.56772 270 ft 23 kts 163°
2026-05-08 19:44 51.75418 -1.56739 270 ft 0 kts 163°
2026-05-08 19:44 51.75387 -1.56724 270 ft 10 kts 163°
2026-05-08 19:45 51.75298 -1.56716 270 ft 14 kts 216°
2026-05-08 19:45 51.75256 -1.56903 270 ft 38 kts 254°
2026-05-08 19:45 51.75084 -1.57820 282 ft 131 kts 252°
2026-05-08 19:45 51.74756 -1.59504 626 ft 173 kts 254°
2026-05-08 19:46 51.74366 -1.61444 1268 ft 192 kts 251°
2026-05-08 19:46 51.73900 -1.63582 2026 ft 206 kts 247°
2026-05-08 19:46 51.73406 -1.68420 3495 ft 243 kts 284°
2026-05-08 19:47 51.74340 -1.70783 4263 ft 260 kts 314°
2026-05-08 19:47 51.75644 -1.72852 5127 ft 266 kts 310°
2026-05-08 19:47 51.76535 -1.75464 6075 ft 269 kts 288°
2026-05-08 19:47 51.77013 -1.78398 7002 ft 272 kts 281°
2026-05-08 19:48 51.77238 -1.81422 7914 ft 275 kts 269°
2026-05-08 19:48 51.77011 -1.84487 8872 ft 276 kts 254°
2026-05-08 19:48 51.76270 -1.87368 9836 ft 278 kts 238°
2026-05-08 19:48 51.75058 -1.89830 10639 ft 284 kts 223°
2026-05-08 19:49 51.73490 -1.91841 11362 ft 291 kts 215°
2026-05-08 19:49 51.71809 -1.93710 12158 ft 295 kts 213°
2026-05-08 19:49 51.70097 -1.95578 12975 ft 299 kts 213°
2026-05-08 19:49 51.68390 -1.97451 13804 ft 302 kts 214°
2026-05-08 19:50 51.66652 -1.99371 14559 ft 305 kts 214°
2026-05-08 19:50 51.64885 -2.01328 15319 ft 308 kts 214°
2026-05-08 19:50 51.63026 -2.03069 16054 ft 311 kts 204°
2026-05-08 19:50 51.60929 -2.04009 16810 ft 316 kts 187°
2026-05-08 19:51 51.58723 -2.03872 17560 ft 322 kts 173°
2026-05-08 19:51 51.56509 -2.03085 18329 ft 327 kts 167°
2026-05-08 19:51 51.54369 -2.01872 18955 ft 333 kts 157°
2026-05-08 19:51 51.52356 -1.99944 19606 ft 340 kts 146°
2026-05-08 19:52 51.50622 -1.97304 20258 ft 348 kts 132°
2026-05-08 19:52 51.49306 -1.94007 20920 ft 355 kts 118°
2026-05-08 19:52 51.48522 -1.90215 21564 ft 362 kts 106°
2026-05-08 19:52 51.48055 -1.86216 22187 ft 368 kts 101°
2026-05-08 19:53 51.47736 -1.82124 22827 ft 372 kts 98°
2026-05-08 19:53 51.47482 -1.77975 23449 ft 376 kts 98°
2026-05-08 19:53 51.47241 -1.73823 23972 ft 380 kts 98°
2026-05-08 19:53 51.46974 -1.69598 24438 ft 383 kts 100°
2026-05-08 19:54 51.46534 -1.65378 24889 ft 385 kts 103°
2026-05-08 19:54 51.46023 -1.61136 25329 ft 388 kts 104°
2026-05-08 19:54 51.45467 -1.56883 25753 ft 392 kts 104°
2026-05-08 19:54 51.44887 -1.52620 26173 ft 395 kts 104°
2026-05-08 19:55 51.44288 -1.48307 26560 ft 398 kts 105°
2026-05-08 19:55 51.43682 -1.43968 26948 ft 401 kts 104°
2026-05-08 19:55 51.43068 -1.39567 27310 ft 404 kts 104°
2026-05-08 19:55 51.42454 -1.35162 27663 ft 407 kts 104°
2026-05-08 19:56 51.41837 -1.30723 28006 ft 409 kts 104°
2026-05-08 19:56 51.41215 -1.26253 28340 ft 412 kts 104°
2026-05-08 19:56 51.40589 -1.21762 28647 ft 415 kts 104°
2026-05-08 19:56 51.39966 -1.17235 28948 ft 418 kts 102°
2026-05-08 19:57 51.39570 -1.12614 29077 ft 420 kts 98°
2026-05-08 19:57 51.39267 -1.07958 29080 ft 421 kts 97°
2026-05-08 19:57 51.38769 -0.98595 29078 ft 422 kts 96°
2026-05-08 19:58 51.38308 -0.89285 29097 ft 422 kts 96°
2026-05-08 19:58 51.37830 -0.79934 29102 ft 422 kts 96°
2026-05-08 19:59 51.37331 -0.70559 29100 ft 422 kts 96°
2026-05-08 19:59 51.36821 -0.61187 29100 ft 423 kts 96°
2026-05-08 20:00 51.36303 -0.51811 29101 ft 423 kts 96°
2026-05-08 20:00 51.35777 -0.42432 29101 ft 423 kts 96°
2026-05-08 20:01 51.35245 -0.33058 29099 ft 423 kts 96°
2026-05-08 20:01 51.34705 -0.23690 29118 ft 423 kts 96°
2026-05-08 20:02 51.34251 -0.15908 29125 ft 423 kts 96°
2026-05-08 20:02 51.33604 -0.04983 29127 ft 424 kts 96°
2026-05-08 20:03 51.33084 0.02871 29128 ft 423 kts 100°
2026-05-08 20:03 51.32066 0.12087 29126 ft 423 kts 101°
2026-05-08 20:04 51.30943 0.21339 29123 ft 423 kts 102°
2026-05-08 20:04 51.29793 0.30579 29144 ft 423 kts 102°
2026-05-08 20:05 51.28643 0.39809 29153 ft 424 kts 101°
2026-05-08 20:05 51.27491 0.49059 29155 ft 424 kts 101°
2026-05-08 20:06 51.26341 0.58237 29153 ft 424 kts 101°
2026-05-08 20:06 51.25171 0.67477 29147 ft 424 kts 101°
2026-05-08 20:07 51.23993 0.76702 29135 ft 424 kts 101°
2026-05-08 20:07 51.22812 0.85911 29134 ft 424 kts 101°
2026-05-08 20:08 51.21622 0.95141 29127 ft 424 kts 101°
2026-05-08 20:08 51.20425 1.04366 29127 ft 424 kts 101°
2026-05-08 20:09 51.19220 1.13590 29128 ft 424 kts 101°
2026-05-08 20:09 51.18017 1.22731 29127 ft 424 kts 101°
2026-05-08 20:10 51.16798 1.31938 29124 ft 424 kts 101°
2026-05-08 20:10 51.16029 1.41229 29121 ft 423 kts 94°
2026-05-08 20:11 51.15540 1.50564 29114 ft 422 kts 93°
2026-05-08 20:11 51.15102 1.59890 29115 ft 422 kts 92°
2026-05-08 20:12 51.14656 1.69215 29114 ft 422 kts 92°
2026-05-08 20:12 51.14193 1.78528 29115 ft 422 kts 92°
2026-05-08 20:13 51.13720 1.87795 29110 ft 421 kts 92°
2026-05-08 20:13 51.13238 1.97090 29106 ft 421 kts 92°
2026-05-08 20:14 51.12746 2.06390 29105 ft 421 kts 92°
2026-05-08 20:14 51.12247 2.15676 29074 ft 421 kts 92°
2026-05-08 20:15 51.11997 2.20285 28624 ft 414 kts 92°
2026-05-08 20:15 51.11748 2.24841 28101 ft 414 kts 92°
2026-05-08 20:15 51.11498 2.29404 27570 ft 411 kts 93°
2026-05-08 20:15 51.11249 2.33912 27055 ft 407 kts 93°
2026-05-08 20:16 51.10999 2.38393 26543 ft 403 kts 93°
2026-05-08 20:16 51.10753 2.42779 26051 ft 398 kts 93°
2026-05-08 20:16 51.10510 2.47084 25573 ft 394 kts 93°
2026-05-08 20:16 51.10265 2.51401 25087 ft 390 kts 93°
2026-05-08 20:17 51.10020 2.55682 24614 ft 385 kts 93°
2026-05-08 20:17 51.09777 2.59901 24147 ft 381 kts 94°
2026-05-08 20:17 51.09523 2.64069 23685 ft 377 kts 95°
2026-05-08 20:17 51.09118 2.68172 23136 ft 374 kts 98°
2026-05-08 20:18 51.08645 2.72216 22592 ft 370 kts 99°
2026-05-08 20:18 51.08161 2.76223 22010 ft 367 kts 99°
2026-05-08 20:18 51.07681 2.80189 21361 ft 364 kts 100°
2026-05-08 20:18 51.07204 2.84122 20720 ft 360 kts 100°
2026-05-08 20:19 51.06732 2.88018 20096 ft 356 kts 101°
2026-05-08 20:19 51.06266 2.91859 19487 ft 353 kts 101°
2026-05-08 20:19 51.05801 2.95682 18884 ft 350 kts 101°
2026-05-08 20:19 51.05345 2.99421 18276 ft 346 kts 102°
2026-05-08 20:20 51.04887 3.03168 17607 ft 343 kts 102°
2026-05-08 20:20 51.04433 3.06872 16950 ft 340 kts 102°
2026-05-08 20:20 51.03981 3.10545 16307 ft 336 kts 102°
2026-05-08 20:20 51.03536 3.14155 15780 ft 332 kts 102°
2026-05-08 20:21 51.03093 3.17739 15296 ft 329 kts 102°
2026-05-08 20:21 51.02654 3.21284 14790 ft 325 kts 102°
2026-05-08 20:21 51.02217 3.24802 14303 ft 322 kts 102°
2026-05-08 20:21 51.01783 3.28280 13813 ft 319 kts 102°
2026-05-08 20:22 51.01354 3.31720 13262 ft 317 kts 102°
2026-05-08 20:22 51.00925 3.35142 12745 ft 314 kts 102°
2026-05-08 20:22 51.00499 3.38530 12218 ft 312 kts 101°
2026-05-08 20:22 51.00075 3.41899 11717 ft 310 kts 101°
2026-05-08 20:23 50.99654 3.45238 11217 ft 308 kts 101°
2026-05-08 20:23 50.99233 3.48561 10724 ft 306 kts 101°
2026-05-08 20:23 50.98813 3.51875 10236 ft 304 kts 101°
2026-05-08 20:23 50.98403 3.55103 9739 ft 300 kts 101°
2026-05-08 20:24 50.97993 3.58326 9204 ft 295 kts 101°
2026-05-08 20:24 50.97587 3.61501 8670 ft 291 kts 101°
2026-05-08 20:24 50.97188 3.64625 8152 ft 287 kts 101°
2026-05-08 20:24 50.96792 3.67714 7651 ft 283 kts 101°
2026-05-08 20:25 50.96402 3.70748 7148 ft 280 kts 102°
2026-05-08 20:25 50.96015 3.73759 6656 ft 277 kts 102°
2026-05-08 20:25 50.95630 3.76741 6144 ft 274 kts 102°
2026-05-08 20:25 50.95248 3.79690 5629 ft 271 kts 102°
2026-05-08 20:26 50.94872 3.82592 5221 ft 266 kts 102°
2026-05-08 20:26 50.94503 3.85436 5110 ft 263 kts 102°
2026-05-08 20:26 50.94138 3.88235 4811 ft 256 kts 102°
2026-05-08 20:26 50.93776 3.91013 4267 ft 257 kts 101°
2026-05-08 20:27 50.93414 3.93784 4006 ft 256 kts 101°
2026-05-08 20:27 50.93051 3.96546 3972 ft 256 kts 102°
2026-05-08 20:27 50.92488 3.99188 3937 ft 255 kts 117°
2026-05-08 20:27 50.91489 4.01458 3464 ft 252 kts 129°
2026-05-08 20:28 50.90320 4.03532 3076 ft 250 kts 131°
2026-05-08 20:28 50.89694 4.04597 2986 ft 242 kts 131°
2026-05-08 20:28 50.88617 4.06378 2976 ft 235 kts 135°
2026-05-08 20:29 50.87299 4.07891 2979 ft 235 kts 149°
2026-05-08 20:29 50.85832 4.09045 2982 ft 236 kts 153°
2026-05-08 20:29 50.84334 4.10121 2980 ft 236 kts 153°
2026-05-08 20:29 50.82945 4.11464 2979 ft 234 kts 137°
2026-05-08 20:30 50.81977 4.13487 2981 ft 231 kts 113°
2026-05-08 20:30 50.81654 4.15946 2982 ft 229 kts 88°
2026-05-08 20:30 50.81979 4.18321 2978 ft 222 kts 70°
2026-05-08 20:30 50.82585 4.20558 2989 ft 220 kts 66°
2026-05-08 20:31 50.83220 4.22700 2985 ft 208 kts 65°
2026-05-08 20:31 50.83823 4.24717 2926 ft 197 kts 66°
2026-05-08 20:31 50.84392 4.26634 2723 ft 189 kts 66°
2026-05-08 20:31 50.84941 4.28495 2463 ft 183 kts 66°
2026-05-08 20:32 50.85457 4.30254 2233 ft 169 kts 66°
2026-05-08 20:32 50.85936 4.31894 1998 ft 160 kts 66°
2026-05-08 20:32 50.86392 4.33462 1781 ft 153 kts 66°
2026-05-08 20:32 50.86828 4.34964 1579 ft 145 kts 66°
2026-05-08 20:33 50.87211 4.36283 1441 ft 119 kts 66°
2026-05-08 20:33 50.87543 4.37418 1218 ft 113 kts 66°
2026-05-08 20:33 50.87897 4.38624 1099 ft 112 kts 66°
2026-05-08 20:33 50.88238 4.39826 972 ft 122 kts 67°
2026-05-08 20:34 50.88574 4.41022 777 ft 117 kts 66°
2026-05-08 20:34 50.88910 4.42189 601 ft 115 kts 65°
2026-05-08 20:34 50.89572 4.44458 381 ft 114 kts 65°
2026-05-08 20:35 50.89912 4.45621 256 ft 118 kts 65°
2026-05-08 20:35 50.90247 4.46789 139 ft 111 kts 65°
2026-05-08 20:35 50.90483 4.47612 128 ft 55 kts 65°
2026-05-08 20:35 50.90605 4.48038 129 ft 35 kts 66°
2026-05-08 20:36 50.90714 4.48205 128 ft 19 kts 345°
2026-05-08 20:36 50.90835 4.48152 129 ft 17 kts
2026-05-08 20:36 50.90905 4.48252 127 ft 13 kts 62°
2026-05-08 20:36 50.90956 4.48392 127 ft 17 kts 60°
2026-05-08 20:37 50.91024 4.48576 126 ft 21 kts 59°
2026-05-08 20:37 50.91104 4.48790 124 ft 24 kts 58°
2026-05-08 20:37 50.91163 4.48931 128 ft 7 kts 38°
2026-05-08 20:37 50.91219 4.48905 126 ft 10 kts 341°
2026-05-08 20:38 50.91272 4.48975 125 ft 12 kts 56°
2026-05-08 20:38 50.91314 4.49107 128 ft 10 kts 87°
2026-05-08 20:38 50.91292 4.49143 127 ft 0 kts 148°